Location: Dodgeville, WI 53533, USA
(43.0344°N, 90.0900°W)
Time: 04:10:32
(UTC-06:00)

N. Korean satellite - Visible Passes

Search period start: 17 February 2019 00:00
Search period end: 27 February 2019 00:00
Orbit: 457 x 510 km, 97.2° (Epoch: 16 February)

Date Brightness Start Highest point End Pass type
(mag) Time Alt. Az. Time Alt. Az. Time Alt. Az.
17 Feb 6.9 06:08:47 10° NNE 06:12:15 68° E 06:15:40 10° S visible
17 Feb 9.9 18:19:26 10° SW 18:22:04 18° W 18:24:41 10° NW visible
18 Feb 8.6 05:44:20 10° NNE 05:47:27 30° E 05:50:32 10° SSE visible
19 Feb 9.9 05:20:25 10° NE 05:22:33 15° E 05:24:40 10° SE visible
20 Feb 10.6 18:40:31 10° WSW 18:41:27 11° W 18:42:22 10° WNW visible
21 Feb 7.3 06:03:16 10° NNE 06:06:41 56° E 06:10:04 10° S visible
21 Feb 9.8 18:13:41 10° SW 18:16:31 21° W 18:19:20 10° NW visible
22 Feb 9.0 05:38:54 10° NE 05:41:52 26° E 05:44:48 10° SSE visible
23 Feb 10.0 05:15:13 10° ENE 05:16:57 13° E 05:18:40 10° ESE visible
24 Feb 10.4 18:34:18 10° WSW 18:35:51 12° W 18:37:23 10° WNW visible
25 Feb 7.7 05:57:44 10° NNE 06:01:06 47° E 06:04:24 10° S visible
25 Feb 9.5 18:07:57 10° SSW 18:10:56 24° W 18:13:52 10° NW visible
26 Feb 9.3 05:33:28 10° NE 05:36:15 22° E 05:39:00 10° SSE visible
